COSMOS 249 DEB, 3506

Orbit data source: Space-Track

COSMOS 249 DEB, 3506 is space debris in LEO originally from a launch on Sun, 20 Oct 1968 UTC launched from the Tyuratam Missile And Space Complex (TTMTR). Debris objects in space refer to the collection of defunct objects orbiting the Earth. Examples of debris include non-operational satellites, rocket bodies, and fragments generated from explosions, collisions, or faulty payload assembly.

Loading next visibility...
Identifier
3506, 1968-091C
Orbit
LEO
Country
Flag of CISCIS
Related business
Manufacturer
Unknown
Mission
Spacecraft
Bus & Motor
Unknown
Mass
Unknown
Launch date (UTC)
1968-10-20 (57 years ago)
Launch vehicle
Unknown
Launch site
Tyuratam Missile And Space Complex (TTMTR)
Object type
Payload
Rocket body
Debris
Shape & HBR
Unknown shape, 0.6 m
Radar Cross Section
Medium (>0.1 m² and <1 m²)

Expand to show TLE details & history
Last TLE update: 8 hours ago

TLE from 8 hours ago
0 COSMOS 249 DEB
1  3506U 68091C   25354.04413345  .00000018  00000-0  55991-4 0  9993
2  3506  62.3700 340.3257 0946080 227.8733 123.8036 12.91039102683353
Epoch: 2025-12-20T01:03Z
TLE epoch observation values (Epoch: 2025-12-20T01:03:33.130Z)
Latitude
-0.00007°
Longitude
-124.43897°
Altitude
1,746.824 km
Speed
6.799 km/s
True Right ascension
22h 41m 18s
True Declination
0° 00' 00"
Sunlit
Object was in daylight at epoch
Visualization orbit readout
Latitude
Unknown
Longitude
Unknown
Altitude
Unknown
Speed
Unknown
Apparent Right ascension
Unknown
Apparent Declination
Unknown
Sunlit
N/A
Visualization observer readout
Local Sidereal Time
07:54:13
Azimuth
Unknown
Elevation
Unknown
Doppler factor
Unknown
Orbital elements
Apogee altitude
2,022.446 km
Perigee altitude
570.305 km
Semi-major axis
7,674.513 km
Eccentricity
0.09461
Inclination
62.37°
RAAN
340.3257°
Arg. of periapsis
227.8733°
True anomaly
132.22465°
Mean anomaly
123.8036°
Eccentric anomaly
128.07098°
Mean motion
3.22825 °/min
Orbital period
111.52 mins
BSTAR
0.000055991
Loading maneuver chart data...
Computing Atmospheric mass density...

Documentation

Showing up to 5 results
|